カタログに戻る

STARLINK-36155

運用中通信VLEO
NORAD 66938·PAYLOAD·🇺🇸 United States

打ち上げ Dec 7, 2025 から Vandenberg Space Force Base

Loading…

次のパス (今後24時間)

TLE

最新Source: CelesTrak SupGP

元期: Sep 14, 2026, 21:44 UTC

1 66938C 25286P   26257.90604167  .00009070  00000+0  26816-3 0  2578
2 66938  53.1576 195.8049 0000993  98.2709 115.8360 15.34365255    17

AllMySatでSTARLINK-36155をリアルタイム追跡

Download on the App Store